Wind_Speed
10 10 10 10 11 11 12 11 9 9 8 8 8 7 7 8 7 7 8 10 11 12 12 13 14 16 17 19 20 21 23 24 25 26 27 28 30 31 33 33 34 34 35 36 35 33 34 32 29 26 23 21 20 20 20 21 23 24 26 27 28 29 29 27 27 28 29 30 32 33 33 31 31 31 32 33 34 36 37 39 40 41 41 42 44
8 8 8 8 9 11 11 10 10 9 8 8 8 7 7 8 7 7 8 9 9 11 12 14 15 17 18 20 22 23 24 25 25 26 27 29 30 32 34 34 34 34 34 34 33 32 33 32 28 25 23 21 21 22 23 23 24 25 26 26 27 27 27 26 26 27 30 32 33 32 31 30 30 31 33 33 34 36 38 39 40 41 42 43 44
7 7 7 7 9 10 11 11 11 10 9 9 8 7 7 7 7 8 8 8 9 11 13 14 15 17 19 22 23 25 26 27 27 29 30 31 32 33 34 34 34 34 33 33 32 32 32 31 28 25 23 22 23 24 25 25 25 26 25 25 26 25 24 23 24 27 30 33 33 31 30 30 31 32 33 34 36 38 39 40 40 41 42 43 43
6 6 6 8 9 9 11 12 11 11 10 9 9 8 8 8 8 8 7 8 9 11 13 15 17 19 21 23 25 26 28 30 31 32 33 34 35 35 36 37 36 36 34 33 33 32 32 32 29 26 24 24 26 26 27 27 27 26 25 25 25 24 23 23 26 29 31 31 31 30 30 30 31 32 34 35 37 39 40 40 41 42 43 42 42
6 6 6 7 8 9 10 11 11 11 11 11 10 9 9 9 8 8 7 8 9 12 15 17 18 20 22 24 26 27 29 30 32 33 34 36 36 37 38 38 38 38 37 36 35 33 32 32 30 27 26 26 27 28 28 28 28 27 26 25 25 25 25 27 30 32 30 29 29 30 30 31 32 33 35 36 38 39 41 42 43 43 43 42 41
9 7 7 7 8 10 11 11 12 12 12 12 11 10 9 9 9 9 8 9 11 12 14 16 17 20 22 24 26 27 29 31 32 34 35 36 38 38 38 38 39 38 38 38 37 35 32 30 29 27 26 27 29 29 29 28 28 28 26 26 26 27 29 31 32 32 30 28 28 29 30 31 32 34 36 38 39 41 42 43 44 44 43 42 41
12 10 9 8 9 11 12 13 14 13 13 13 12 10 9 9 9 10 11 11 10 11 12 14 16 19 22 25 26 28 32 34 36 37 37 38 40 41 41 41 40 38 36 36 36 36 33 30 28 28 27 29 31 31 30 30 30 29 27 26 27 29 31 33 33 32 30 28 28 29 30 31 33 35 38 40 42 43 43 43 43 43 43 42 42
14 13 12 10 9 11 13 14 14 14 13 13 11 10 9 10 10 11 12 11 10 10 12 15 17 20 23 26 27 30 33 36 38 41 41 42 43 44 44 43 41 37 35 34 35 35 34 31 29 29 29 31 32 32 32 33 33 31 29 28 29 31 33 33 32 31 30 29 29 30 31 32 35 37 40 42 43 44 44 44 43 43 43 43 44
16 15 14 12 11 12 14 15 15 14 13 12 11 11 11 11 11 10 10 11 12 14 15 17 20 22 24 26 28 30 33 36 38 41 43 45 46 46 46 45 41 35 33 33 34 34 34 33 31 30 30 32 33 34 35 36 36 34 32 31 31 32 32 31 31 30 30 30 30 31 32 35 38 40 42 43 44 44 45 45 44 43 43 44 47
17 16 15 14 14 15 15 16 15 14 13 13 13 13 13 13 11 10 10 13 15 17 18 19 21 24 25 27 29 31 33 36 38 41 43 45 47 47 46 45 41 34 32 33 33 33 34 34 32 31 31 32 33 35 35 36 37 35 34 33 33 33 31 31 31 32 33 32 32 32 34 37 40 42 43 44 45 45 45 46 45 44 44 46 50
19 17 16 16 18 17 16 17 17 15 14 15 15 15 14 13 11 11 12 15 17 18 19 21 23 24 26 27 29 32 34 36 39 41 43 45 46 47 46 45 41 35 32 33 33 33 34 34 32 32 32 33 34 35 36 37 37 36 34 33 34 33 32 32 34 35 35 33 33 34 36 40 42 44 45 46 46 46 47 46 45 45 46 50 52
21 19 17 19 20 19 17 18 18 17 16 17 17 16 15 13 13 14 15 16 18 19 21 23 24 26 27 29 30 32 34 37 40 42 44 45 46 47 46 43 38 34 33 33 33 33 34 35 34 33 33 34 35 36 38 38 37 36 34 34 34 33 34 36 38 37 34 33 34 36 40 43 45 45 46 47 47 47 47 46 45 46 49 52 52
24 21 20 21 21 20 18 19 20 19 18 18 18 17 16 15 15 16 17 18 20 21 23 25 26 28 29 31 32 34 35 38 41 43 44 46 47 47 45 40 35 33 33 34 34 33 34 36 35 33 33 34 36 38 38 39 38 36 35 35 34 35 36 39 39 35 32 33 35 38 42 45 46 47 48 48 48 48 47 46 46 49 51 52 50
27 25 23 22 22 20 19 19 21 21 21 20 19 19 19 19 19 19 20 21 22 24 26 28 29 30 32 33 34 36 37 39 42 44 45 47 47 45 42 36 32 32 33 35 36 35 36 36 35 34 35 36 37 38 39 39 39 37 37 37 36 37 39 39 36 32 31 33 36 39 43 45 46 47 49 49 48 46 45 46 48 51 52 51 46
30 28 26 24 23 21 20 20 21 22 23 22 22 22 22 23 23 23 24 24 25 26 29 30 32 33 34 35 36 37 39 41 44 46 47 47 46 43 39 34 31 31 33 35 38 39 38 38 37 36 37 37 38 39 40 41 40 39 38 38 38 39 39 37 33 30 30 33 36 38 41 44 45 46 47 47 46 44 45 47 49 51 51 48 43
32 30 29 27 24 21 20 20 21 22 23 23 23 23 23 24 25 25 26 27 28 30 31 33 34 36 37 37 37 39 40 43 45 46 47 47 45 42 39 35 32 32 33 36 39 40 40 39 38 38 37 38 39 40 41 42 42 41 40 39 39 41 40 37 33 30 32 35 36 37 39 42 43 44 45 45 43 44 46 48 50 50 48 44 40
34 32 31 29 26 23 21 20 21 21 21 22 22 22 23 24 25 26 27 29 31 33 34 35 37 38 39 39 39 40 42 44 46 47 47 46 45 42 40 38 36 35 35 37 38 39 39 39 38 38 38 39 40 41 42 43 43 42 41 41 41 41 40 36 33 32 34 37 38 37 38 40 42 43 44 44 44 46 48 49 50 49 45 41 38
36 35 33 31 28 26 24 23 22 22 21 20 20 22 24 25 26 27 28 31 34 35 36 37 39 40 41 41 41 41 43 46 47 47 47 46 45 43 42 40 39 37 37 37 37 37 37 37 37 37 38 39 40 41 43 44 43 42 42 41 41 42 41 37 34 33 37 39 39 38 39 41 43 43 43 44 45 47 49 49 49 47 42 38 37
39 38 36 34 31 29 26 25 24 22 21 21 22 25 26 27 28 29 31 34 36 38 39 39 40 41 42 43 42 43 45 47 48 47 47 47 46 45 43 41 38 37 37 37 36 37 37 37 37 37 38 39 41 42 44 44 43 43 42 41 41 42 39 35 34 37 40 40 39 38 40 42 44 44 43 44 46 49 50 49 47 44 40 37 36
42 41 39 35 33 31 28 26 25 23 23 25 27 28 29 29 30 33 35 38 40 42 43 42 41 42 44 45 43 44 47 48 48 47 47 48 47 46 44 41 37 36 36 36 37 38 38 38 38 38 38 39 41 43 45 44 43 42 40 40 42 41 35 33 36 41 41 40 39 39 42 44 45 45 45 45 47 50 50 48 45 42 38 36 35
45 44 42 37 34 32 30 29 26 25 27 29 31 31 31 32 34 36 38 40 43 44 45 44 44 46 48 47 45 46 48 49 48 48 48 49 48 46 44 40 37 37 37 37 38 38 39 39 39 39 39 39 41 43 44 43 42 42 42 43 42 39 35 36 40 41 40 40 41 43 44 46 47 47 47 47 48 49 48 46 44 40 38 36 35
47 46 44 40 36 33 32 30 28 28 31 32 33 33 34 35 36 37 39 42 45 47 47 46 47 48 50 49 48 48 49 49 48 47 48 48 48 46 42 39 38 39 39 39 38 38 39 40 40 41 41 40 41 43 43 43 43 43 44 44 40 35 35 38 40 41 42 43 44 46 47 48 47 47 47 48 49 48 46 44 42 39 38 36 35
49 49 47 43 38 35 34 32 31 32 33 33 34 35 35 35 36 39 41 43 46 49 50 50 50 52 53 51 50 50 50 49 48 47 48 49 47 44 41 40 41 42 40 39 38 38 39 40 41 41 41 40 41 42 43 44 44 44 44 43 37 33 35 39 40 42 44 46 47 48 48 48 47 46 47 48 48 46 44 43 41 39 38 37 37
51 50 50 46 40 37 35 34 34 34 34 33 34 35 36 36 38 40 42 45 49 51 50 50 53 56 54 50 48 49 49 48 48 48 49 48 46 44 44 44 44 42 39 38 39 40 41 41 41 41 40 40 42 42 43 45 45 45 45 42 35 34 37 39 41 44 46 48 50 50 48 48 47 47 47 47 46 44 42 41 40 39 38 37 37
52 51 51 47 41 38 37 36 36 37 35 34 36 36 37 39 40 42 45 49 50 48 46 46 49 48 42 41 44 47 48 49 49 49 50 49 46 45 46 46 43 39 38 39 41 42 42 41 41 40 39 40 42 42 44 46 45 45 46 41 35 35 38 40 44 47 49 51 52 50 48 48 47 47 46 45 43 42 41 39 39 38 38 37 37
53 52 51 46 41 39 38 38 39 38 36 35 37 37 38 41 42 44 48 49 46 44 43 44 45 41 36 38 44 47 48 49 50 50 50 48 46 47 49 45 40 38 39 41 42 42 42 40 39 39 39 40 42 44 44 44 44 45 45 41 36 37 40 43 48 51 53 53 52 49 47 47 46 45 44 43 41 40 39 38 38 38 38 38 38
52 51 48 44 41 41 40 40 39 38 36 36 37 39 40 42 44 46 48 46 44 43 44 45 44 42 42 44 47 48 49 49 50 50 49 47 49 50 46 39 36 39 41 42 42 41 39 37 37 38 40 42 43 43 43 44 45 46 44 42 41 43 46 50 53 55 55 54 51 48 48 46 44 43 43 41 40 39 39 38 38 38 38 38 38
50 48 46 45 44 43 42 41 39 37 37 38 39 41 43 44 46 47 46 44 44 44 45 46 45 45 46 48 50 51 50 49 49 49 49 48 46 41 34 32 38 43 43 42 41 39 37 37 38 39 41 42 42 43 46 47 46 43 42 43 45 48 51 54 55 55 54 51 48 47 47 45 43 42 41 40 39 39 39 39 39 39 39 39 38
49 49 47 46 45 44 42 40 38 38 39 40 42 44 45 46 48 47 43 42 44 45 46 47 47 47 48 50 53 52 50 48 48 48 48 46 39 33 33 37 43 44 41 40 40 38 37 37 38 39 40 41 43 46 47 45 41 40 42 44 47 49 52 53 53 51 48 45 43 43 43 41 40 39 38 38 38 39 39 39 39 40 39 39 38
46 47 47 45 44 42 40 39 39 40 42 43 45 45 47 49 48 44 40 41 44 45 47 48 48 48 50 52 53 51 47 46 47 47 47 44 39 38 40 42 44 44 41 38 36 36 38 38 38 39 40 41 43 43 41 39 39 42 44 45 48 50 50 50 48 45 42 40 38 38 37 37 37 37 37 38 38 39 39 39 39 39 38 37 37
39 42 44 44 43 41 39 39 41 43 44 46 46 47 48 49 47 41 40 42 44 45 47 48 48 49 51 52 51 47 45 46 46 45 44 42 41 42 42 42 43 42 35 30 29 33 37 39 38 38 39 39 38 36 37 39 41 43 43 45 47 48 47 45 43 41 38 37 36 35 35 36 37 37 38 39 39 39 39 38 37 37 37 36 37
40 42 42 42 41 40 40 41 44 46 47 48 48 48 49 49 45 42 41 43 45 46 48 48 48 50 51 49 46 44 45 45 45 43 41 41 42 42 40 40 40 36 31 31 34 35 37 39 38 37 38 37 36 38 41 43 44 44 45 46 47 47 46 45 42 39 35 34 34 35 36 37 37 38 38 38 38 37 37 36 36 35 35 35 36
40 41 40 40 40 41 43 46 47 48 48 49 50 51 50 48 44 42 41 43 46 47 47 47 48 50 49 46 44 44 44 43 42 41 41 41 41 41 40 39 38 35 33 34 38 41 43 43 40 39 39 40 41 44 47 48 48 47 47 47 46 45 44 41 38 34 32 33 34 35 36 36 36 36 37 37 36 36 35 34 34 34 34 34 34
41 42 41 42 43 46 48 49 48 48 48 49 51 51 49 45 42 42 43 45 47 47 47 48 49 49 47 45 44 43 42 41 41 42 42 41 41 41 41 40 40 39 36 36 39 44 47 47 45 45 45 47 49 51 52 51 49 46 45 44 42 40 37 34 31 30 31 32 33 33 34 35 35 36 37 37 36 35 34 34 33 33 33 33 33
43 43 44 46 48 50 50 49 49 49 49 49 49 49 46 43 42 43 45 47 47 46 47 49 49 48 46 44 43 41 40 41 41 41 42 42 42 42 42 41 42 42 41 40 41 42 44 45 47 47 48 49 50 50 49 47 43 40 39 40 38 34 31 29 28 29 29 30 31 32 33 34 35 36 36 36 34 33 32 32 32 32 31 31 31
45 46 47 49 50 51 51 51 51 50 47 44 45 45 44 43 44 45 47 47 46 47 49 49 48 46 44 43 41 41 40 40 40 40 41 42 42 42 42 42 43 43 43 42 42 42 42 43 44 44 45 46 45 44 41 38 35 35 36 34 31 29 27 27 27 27 27 28 30 31 33 34 35 35 34 33 31 30 29 29 29 29 29 29 29
47 48 49 50 51 51 51 50 48 44 41 40 41 42 42 44 46 47 47 46 47 48 49 48 46 44 43 41 40 39 40 40 40 41 42 42 42 42 42 42 42 43 43 43 43 43 43 42 42 42 42 41 40 37 34 33 32 32 30 27 25 25 26 25 25 26 27 28 29 30 31 32 33 32 31 30 29 28 28 28 28 28 29 29 29
49 49 50 51 51 50 48 46 43 40 39 40 41 43 44 46 47 47 46 45 47 47 47 45 43 42 40 39 39 39 40 41 41 42 42 42 42 41 41 41 42 42 43 43 43 42 42 41 40 39 38 37 35 33 32 30 29 26 24 23 23 23 23 23 24 24 25 26 27 28 29 29 29 29 28 27 27 27 27 28 28 29 29 29 30
49 48 48 48 47 46 44 43 41 41 41 42 43 45 47 48 48 46 45 45 46 45 44 42 41 40 39 39 39 40 41 41 41 41 41 41 41 41 41 41 42 43 43 44 43 42 41 39 38 36 35 34 32 31 29 26 23 21 21 21 21 20 21 22 22 23 23 24 25 26 27 28 28 27 27 27 27 27 28 28 28 28 28 28 28
45 45 45 45 44 43 43 43 43 43 44 45 46 47 49 49 48 45 44 44 44 42 41 40 39 38 39 39 40 40 40 40 40 40 40 40 40 41 41 42 42 43 43 43 42 40 39 37 35 34 33 31 29 26 23 20 19 19 20 19 18 19 20 20 21 21 22 23 24 25 26 27 27 27 26 27 27 28 28 28 28 27 26 25 25
45 45 45 45 44 43 44 45 46 46 46 47 48 49 49 48 46 43 41 41 40 39 39 38 38 38 39 39 39 40 39 39 39 40 40 40 41 41 42 42 42 42 41 40 39 37 36 35 33 32 30 27 24 20 18 18 18 18 18 17 17 18 19 20 21 22 23 24 25 25 26 26 26 26 26 26 27 28 28 27 26 25 23 23 23
46 46 46 46 46 46 46 47 49 48 48 48 49 48 47 44 41 39 38 38 37 37 37 37 37 38 38 39 39 39 38 38 39 39 40 40 41 42 41 40 40 40 40 38 36 35 34 33 31 28 25 22 19 18 17 17 17 17 16 16 17 17 19 20 21 22 23 24 25 25 26 26 26 26 26 26 26 27 27 26 24 22 22 22 23
48 48 48 48 48 48 48 50 50 49 48 48 48 46 43 39 37 36 36 36 36 37 37 37 37 38 38 38 38 37 37 38 38 39 40 41 41 40 39 39 38 38 37 35 33 32 32 30 27 23 20 19 19 18 17 16 16 16 16 16 16 18 19 21 22 23 24 25 25 25 26 26 26 27 27 26 26 26 26 24 23 22 22 23 23
51 51 52 52 51 51 51 52 52 49 48 48 45 41 38 36 36 36 36 36 36 36 36 36 37 37 37 37 37 36 37 37 38 39 40 40 39 39 37 36 36 35 34 32 30 29 28 26 23 20 19 19 18 18 17 16 15 15 15 15 17 18 20 21 22 23 24 25 25 25 26 26 26 27 27 27 27 26 25 23 22 22 22 23 24
54 55 55 54 54 54 53 53 52 49 46 43 39 36 35 34 35 35 35 35 35 35 36 36 36 36 36 36 36 36 36 37 38 39 38 38 37 36 34 33 33 33 31 29 27 27 26 25 22 20 19 18 18 17 17 16 15 15 15 16 17 19 21 22 23 24 25 25 26 26 26 26 26 27 27 28 27 26 25 23 22 22 23 23 24
53 54 54 55 55 53 51 48 45 42 39 36 35 34 34 34 34 34 34 34 34 35 35 35 35 35 35 35 35 35 36 37 38 37 36 36 35 33 31 31 31 30 28 27 26 26 26 24 21 19 18 17 16 16 16 16 15 16 16 17 18 20 22 23 24 25 25 26 26 27 27 27 27 27 27 28 28 27 26 24 22 22 23 23 24
44 42 42 43 44 41 38 36 35 35 36 35 34 33 33 33 33 33 34 34 34 34 34 34 34 35 35 35 35 36 36 36 36 35 34 34 32 30 29 29 29 28 27 26 25 25 24 22 19 17 16 15 14 14 15 16 17 17 17 18 19 21 22 23 25 26 26 27 27 27 27 27 27 27 27 27 27 28 27 25 23 22 22 23 24
34 30 28 28 29 29 29 30 32 33 34 33 32 32 32 32 33 33 34 34 34 33 33 34 34 34 34 35 35 35 35 35 34 34 33 31 29 27 27 27 27 27 26 24 23 22 20 18 16 15 13 13 13 14 15 16 18 18 18 19 20 22 23 24 25 26 27 27 27 28 28 28 27 27 27 27 27 27 27 26 25 23 22 23 23
26 24 24 24 24 26 29 30 31 31 31 30 31 31 32 32 33 33 33 33 33 33 33 34 34 34 34 35 35 34 34 33 33 31 30 29 27 25 25 25 24 23 22 20 19 18 17 16 14 13 12 12 13 14 15 17 18 18 19 20 21 22 24 25 25 26 26 27 27 27 28 28 28 27 27 27 27 27 27 27 26 24 23 22 22
24 24 25 25 26 27 29 30 31 31 31 31 31 32 32 33 33 33 32 33 33 33 33 33 34 34 34 34 34 33 32 31 30 28 27 26 24 23 22 21 20 19 18 16 16 16 16 15 14 14 13 13 14 15 16 17 18 19 20 21 22 23 24 24 25 25 25 26 26 27 27 27 28 28 27 27 26 26 26 27 26 25 24 23 22
25 26 26 26 27 28 29 29 30 31 31 31 32 32 32 33 33 33 33 33 33 32 33 33 33 34 34 33 32 31 29 28 27 25 23 22 21 20 19 18 18 17 16 15 15 15 15 16 16 15 15 15 16 17 18 18 19 20 21 21 22 23 23 23 24 24 24 24 25 25 26 27 27 28 28 27 27 26 26 26 26 26 25 24 23
Wind_Direction
233 237 238 239 242 245 248 249 248 248 247 242 237 236 242 248 252 262 277 291 299 303 306 311 313 313 313 314 316 318 319 321 324 324 323 322 320 319 320 321 322 322 321 322 323 323 324 326 326 325 318 311 311 311 308 306 303 300 298 296 294 292 289 286 285 286 288 292 297 298 299 298 297 296 297 300 302 303 304 305 306 307 307 306 305
230 238 239 238 240 241 243 242 244 248 244 237 234 232 236 245 256 272 285 292 295 298 304 309 311 312 313 315 316 317 319 321 324 324 323 323 324 325 324 323 321 320 321 321 322 322 323 326 327 326 320 313 311 309 306 304 302 301 300 298 295 293 291 288 287 288 290 293 296 296 295 294 294 295 297 300 300 300 299 299 300 302 303 303 304
234 240 241 242 242 241 241 242 244 246 239 232 233 234 239 251 263 274 283 289 292 297 303 305 306 309 310 313 314 316 318 322 325 325 326 326 328 328 326 322 318 318 320 320 320 320 322 324 324 322 320 318 315 313 309 305 303 302 302 301 298 296 296 294 292 291 292 294 294 293 292 292 294 295 297 299 299 298 297 297 298 300 300 301 303
243 249 243 241 243 241 241 240 239 238 234 231 234 239 248 256 264 272 277 285 292 299 303 304 305 307 310 312 316 319 322 325 328 330 330 328 327 325 324 323 320 319 319 319 318 317 319 322 321 316 314 315 317 317 313 307 303 303 306 305 300 297 296 296 295 294 293 291 291 291 292 293 295 296 297 298 298 298 298 299 300 301 301 302 302
242 259 255 243 238 236 236 235 232 231 232 234 237 244 251 256 261 264 268 281 294 300 302 304 306 310 313 317 321 325 327 331 334 334 331 329 329 329 328 326 323 320 318 317 316 316 317 319 318 314 311 311 313 315 313 307 300 300 303 303 297 294 293 293 295 294 292 289 289 290 292 295 297 298 299 299 299 300 301 302 303 302 301 301 301
239 254 263 254 240 235 234 232 229 229 232 238 243 245 249 254 255 259 267 281 292 297 300 304 309 315 320 323 327 329 331 334 335 333 331 333 334 332 328 324 321 318 316 315 314 314 314 316 316 313 310 310 310 311 311 309 303 299 299 297 293 291 291 293 294 293 291 288 286 288 292 297 299 300 301 302 304 305 306 306 304 302 301 301 301
240 248 260 260 249 240 235 232 231 232 235 240 245 244 242 245 253 266 277 286 292 296 302 307 313 319 324 327 330 331 332 334 333 331 333 336 334 330 327 324 320 316 313 311 310 310 311 312 313 311 309 310 311 310 309 311 310 304 298 294 292 291 293 294 294 292 289 286 286 290 296 300 301 303 304 305 307 307 307 306 305 303 302 301 300
243 247 256 261 258 248 240 236 235 238 238 239 242 241 236 240 254 270 280 289 295 301 307 311 315 320 325 328 331 331 332 332 331 331 333 334 331 329 329 327 322 316 311 308 306 307 308 309 310 310 309 310 312 310 309 311 313 308 300 293 292 293 294 294 292 290 288 287 290 296 300 302 304 306 306 307 307 307 307 306 305 303 302 301 301
243 244 251 259 263 257 247 240 238 239 239 238 238 238 238 243 251 260 273 288 300 305 309 312 315 319 323 327 330 331 331 330 329 329 330 329 327 327 328 327 323 316 309 306 304 304 305 306 307 308 309 309 309 308 308 310 313 310 304 298 295 295 295 294 293 292 290 289 293 299 303 307 309 309 308 308 308 308 307 306 304 302 300 300 302
239 241 247 256 262 260 251 244 239 237 236 237 237 238 242 246 245 249 269 290 300 304 307 311 315 318 321 325 327 329 330 329 327 327 326 324 324 324 325 327 324 316 308 305 304 303 303 304 306 308 307 306 306 306 306 308 310 309 306 302 299 296 295 294 296 296 294 291 293 299 305 309 310 309 310 309 309 308 307 304 302 301 299 301 303
237 239 243 251 258 258 252 247 240 232 231 236 239 240 243 246 248 258 277 290 295 299 304 309 313 316 319 321 324 326 327 327 325 324 323 321 321 322 323 325 322 316 310 306 304 303 302 303 304 305 305 305 305 304 304 305 306 306 304 302 300 297 294 295 298 299 295 291 293 298 303 307 309 310 309 309 307 306 304 302 300 300 301 302 304
237 237 238 244 253 256 251 245 238 229 228 234 241 244 245 250 260 271 281 287 291 296 302 306 309 313 315 317 320 322 324 324 323 321 320 319 319 320 321 322 319 314 309 305 303 303 301 300 301 301 303 304 303 302 302 302 304 304 302 300 298 295 294 298 301 299 295 293 296 299 302 306 309 308 307 306 305 304 302 300 300 301 303 304 304
241 237 234 238 249 253 248 241 236 231 229 234 241 246 248 256 267 275 280 285 291 296 299 302 306 310 312 315 317 319 321 321 319 318 318 318 318 319 320 319 314 309 307 304 303 302 300 298 300 301 301 302 302 301 301 301 303 303 300 299 298 296 296 300 301 298 296 298 301 302 303 304 306 305 304 303 303 301 300 300 301 303 304 305 304
249 243 236 236 244 248 244 239 235 232 231 235 242 248 252 259 267 274 280 286 292 296 299 302 305 308 311 313 314 316 318 318 316 317 318 317 317 318 319 316 309 305 304 303 301 299 298 298 299 300 300 301 302 301 300 300 301 301 300 299 298 297 299 299 298 296 299 304 305 304 302 303 303 303 302 301 300 300 300 302 303 304 305 305 303
253 249 243 239 240 242 242 237 234 234 234 238 245 251 255 260 266 274 281 288 293 297 299 302 304 307 309 310 312 315 316 316 316 317 319 318 317 318 318 313 306 303 303 301 299 299 299 299 300 300 301 301 301 300 299 299 299 299 300 299 298 299 300 297 294 295 302 308 308 304 301 300 300 300 299 298 298 300 302 304 305 305 306 305 302
252 251 249 244 238 237 237 233 231 233 237 241 247 253 258 263 269 277 284 290 295 297 299 301 304 305 306 307 310 313 314 315 315 317 318 318 317 318 317 311 306 304 303 300 300 301 301 301 301 301 300 299 298 297 296 296 298 299 299 299 299 299 298 292 288 293 303 309 308 303 300 299 298 298 297 297 299 301 304 306 306 306 305 302 299
250 251 251 246 237 232 232 231 231 234 239 244 250 257 264 269 275 282 288 292 294 296 297 300 302 303 303 305 308 310 311 312 312 314 317 317 317 317 316 312 310 309 306 303 302 302 301 301 301 301 299 296 295 295 295 297 298 300 300 300 300 298 294 288 285 292 304 309 309 305 302 301 301 300 299 299 300 302 305 306 306 305 303 299 297
248 250 251 246 238 232 231 233 237 241 245 251 257 264 269 274 279 285 289 291 292 293 295 298 299 300 301 303 305 307 308 308 309 312 315 316 316 316 315 314 313 312 310 307 305 302 301 301 302 299 296 294 294 294 295 297 299 299 299 299 299 297 293 287 284 294 306 310 310 308 305 303 302 302 301 300 301 303 306 306 305 303 300 296 295
247 248 249 247 241 235 233 236 240 245 251 257 262 266 270 275 281 285 287 288 288 289 292 295 296 298 300 301 303 305 305 305 308 311 314 315 315 314 314 315 315 313 311 309 306 303 302 301 300 297 293 292 292 293 294 297 299 299 298 299 299 297 293 287 290 302 310 312 311 308 304 302 302 303 303 302 303 304 305 304 302 300 296 294 295
245 246 247 244 240 237 236 238 243 248 255 260 262 266 272 277 283 286 287 287 288 290 294 296 296 298 300 300 301 301 301 303 307 311 313 314 313 313 314 315 314 313 311 309 305 304 302 300 298 295 292 290 290 292 295 298 298 297 296 297 298 295 291 292 301 309 312 312 311 308 305 304 304 304 304 304 304 305 304 303 301 299 295 294 295
243 244 244 240 236 237 238 240 245 250 256 260 263 269 276 280 283 286 288 288 290 293 296 298 299 300 300 299 298 298 298 301 306 310 312 312 312 313 314 314 314 314 312 307 305 305 302 298 296 293 291 289 289 292 296 298 297 296 296 296 296 294 294 301 308 312 313 313 311 309 307 306 305 304 304 304 305 304 303 302 300 298 295 294 295
242 241 241 238 235 236 239 242 246 251 256 261 267 272 276 279 282 285 286 286 287 291 294 296 298 300 300 297 294 295 297 300 305 309 310 310 311 312 312 313 315 313 309 306 306 305 300 296 293 291 290 290 290 293 296 296 296 296 295 295 294 294 298 306 311 313 314 314 312 310 308 306 305 304 304 305 304 303 301 300 298 296 294 294 294
241 239 239 238 235 235 239 243 247 252 257 262 267 271 274 278 281 283 284 284 284 286 290 292 294 296 297 293 291 293 296 300 305 307 307 308 310 310 310 312 313 309 306 306 306 303 297 293 291 289 289 290 291 293 294 294 294 293 292 291 291 293 300 307 311 313 314 314 312 310 308 306 305 305 305 304 303 301 300 299 298 297 296 296 296
239 238 238 237 234 234 239 243 246 251 256 261 266 269 272 276 279 280 283 282 281 284 290 295 298 299 292 286 287 292 297 301 304 304 305 308 309 308 309 311 309 306 305 307 305 301 296 292 290 289 289 289 291 293 294 294 293 291 290 288 286 291 300 306 310 311 312 313 312 310 307 305 304 305 304 303 301 299 299 299 298 298 297 297 297
236 237 236 235 232 234 239 242 245 249 254 258 262 266 270 273 276 278 279 279 281 289 296 301 306 306 294 282 285 294 299 301 300 300 304 307 308 308 308 307 304 303 305 307 305 300 295 292 290 289 289 288 290 293 294 294 293 291 289 286 286 293 301 305 308 309 311 312 311 308 305 303 303 304 302 300 298 297 297 298 298 297 297 297 297
233 233 233 233 233 235 237 240 243 248 253 257 262 267 270 273 275 277 279 283 289 297 299 300 303 305 299 292 293 298 301 301 299 300 304 307 307 306 303 300 299 303 307 307 304 299 294 291 289 288 288 286 287 290 293 293 292 291 289 287 291 299 303 305 308 310 310 310 309 305 303 302 303 302 299 297 296 296 296 297 297 297 297 297 297
230 230 229 229 232 234 237 240 244 249 253 259 264 268 270 273 275 277 280 286 292 296 297 298 299 299 300 301 300 300 301 300 300 302 305 306 305 302 297 296 302 308 308 306 303 299 293 289 289 288 287 286 286 288 291 291 290 290 291 294 301 306 307 308 309 310 310 309 307 304 303 303 302 300 298 297 297 296 296 296 297 297 297 297 297
226 226 225 225 229 233 237 241 245 249 254 259 263 266 268 271 273 275 279 284 288 292 295 297 297 296 298 301 302 301 301 301 301 303 304 305 304 300 296 299 307 310 309 306 303 297 290 289 291 290 288 288 288 287 290 291 291 293 298 303 307 308 309 310 309 309 308 308 306 304 303 303 302 300 298 298 298 297 297 297 296 296 296 296 297
220 222 224 226 230 234 238 242 245 249 253 256 260 263 266 268 269 271 277 283 286 290 292 293 294 295 296 299 301 301 300 300 300 301 301 302 302 299 299 303 308 311 310 307 303 296 289 289 293 293 290 290 289 289 291 294 297 300 304 306 307 307 309 310 308 306 306 305 303 301 300 299 298 297 297 297 297 296 297 297 296 296 296 296 296
214 219 225 229 232 235 238 241 243 246 249 253 257 261 264 266 267 270 277 283 285 288 290 292 293 294 295 299 301 300 298 298 299 299 300 302 303 305 306 308 312 316 315 309 302 293 286 287 293 294 292 291 291 293 296 299 302 304 305 305 306 307 308 308 306 304 303 302 300 297 296 296 297 297 297 298 298 298 298 298 297 297 296 296 295
212 219 225 229 231 235 238 240 242 245 248 252 256 259 262 264 266 269 276 281 285 288 290 291 292 294 297 300 300 297 295 296 297 298 300 304 307 308 308 310 315 317 312 298 284 278 281 289 294 296 296 295 293 293 296 300 303 304 304 304 305 306 307 306 306 304 302 301 300 299 299 300 300 300 301 301 301 301 300 299 298 297 296 296 295
216 223 228 230 233 237 239 241 243 246 249 253 256 258 261 262 264 268 273 280 285 287 289 291 293 296 298 298 296 295 295 296 297 299 302 305 306 305 305 308 313 313 303 289 280 278 286 295 297 295 294 292 289 291 296 302 305 305 303 302 304 305 305 306 306 305 302 301 302 303 303 303 303 303 303 302 301 301 300 300 300 300 299 298 297
221 226 229 231 234 237 239 241 245 248 252 256 259 261 263 264 267 271 276 281 285 286 288 292 296 298 297 295 294 295 296 297 299 301 302 303 303 302 304 307 309 307 301 293 287 285 289 294 295 293 291 289 289 295 301 304 305 304 302 302 303 304 305 307 307 305 303 303 304 304 304 305 305 305 305 304 304 304 304 304 304 303 301 300 298
224 228 230 232 234 237 239 243 246 249 253 257 260 264 266 268 272 277 280 283 285 286 290 295 298 298 295 294 295 297 298 299 301 302 302 302 303 303 305 307 306 304 300 293 288 287 288 290 292 292 291 290 292 297 300 302 302 303 303 303 305 307 308 307 305 304 304 305 305 306 306 308 308 309 309 309 309 308 307 306 306 304 303 301 300
227 230 232 234 237 240 242 244 246 247 249 253 259 264 268 271 275 279 281 282 285 288 292 296 297 295 294 295 297 299 299 301 302 302 302 303 303 304 304 303 302 301 299 296 293 291 289 289 289 290 290 292 294 297 299 300 302 303 304 305 307 308 307 305 305 305 306 307 308 310 311 312 312 312 312 311 310 309 308 307 306 305 304 303 302
231 233 236 238 241 243 245 246 246 247 249 254 259 265 269 273 275 277 279 281 285 289 292 294 294 294 295 297 298 299 300 301 301 300 300 300 301 301 301 300 300 299 299 298 298 296 294 293 293 294 295 297 298 300 301 302 303 304 305 305 306 305 305 306 307 308 310 312 314 316 316 317 316 316 316 315 314 313 312 310 309 308 308 308 308
236 237 240 243 244 245 246 248 251 254 257 260 263 267 270 272 273 275 277 281 285 289 291 292 293 294 296 297 297 298 298 298 299 299 299 299 300 300 300 299 299 299 299 299 299 299 298 299 299 299 299 300 301 303 304 304 305 305 305 304 303 303 305 307 310 313 316 318 319 320 320 320 320 321 321 320 319 317 316 315 314 313 313 313 313
238 239 241 242 244 246 248 251 254 257 260 263 265 268 270 271 273 275 278 282 286 289 290 291 293 294 295 295 295 296 297 298 298 299 299 299 299 299 299 298 298 298 299 299 300 300 300 301 301 301 301 302 304 306 306 306 306 305 303 302 302 303 307 310 314 317 320 321 322 324 324 325 326 326 327 326 325 323 320 318 317 316 316 316 315
240 243 245 246 248 250 252 254 256 259 262 265 268 270 271 273 274 277 280 284 286 288 290 291 293 293 293 294 295 296 297 297 298 298 298 298 298 298 298 298 299 299 299 300 300 301 301 301 300 300 302 303 305 306 307 307 305 301 300 301 302 306 310 313 316 319 321 323 326 328 330 332 333 333 332 331 329 326 322 320 319 318 318 318 318
245 247 249 251 252 252 254 257 260 263 265 268 270 272 274 276 277 280 283 285 287 288 289 290 291 292 293 294 295 295 296 297 297 297 297 297 298 299 299 299 299 299 300 300 301 301 301 300 300 301 303 304 305 306 305 303 298 296 297 301 305 309 312 315 317 319 322 324 327 330 333 336 337 335 334 332 330 328 325 322 321 321 321 323 324
249 249 249 250 252 253 256 260 262 265 267 270 272 274 275 277 279 282 283 284 285 286 286 287 289 290 292 293 294 295 295 295 296 296 297 298 299 299 299 299 299 299 300 301 301 302 302 302 302 303 304 303 303 303 300 296 294 295 298 302 307 311 313 315 316 319 321 324 327 330 334 337 338 337 335 333 331 330 328 326 325 325 327 328 330
249 250 252 253 255 257 260 262 263 265 268 271 273 274 275 276 277 279 280 281 282 283 284 286 288 290 291 293 294 294 294 294 295 297 298 298 298 298 298 299 300 300 301 302 302 302 303 303 304 304 303 301 300 299 296 294 295 298 300 304 308 311 312 314 316 319 321 323 326 329 333 336 338 338 336 334 333 332 330 329 328 328 329 330 332
250 252 253 255 256 258 260 262 262 265 270 275 276 275 274 275 276 277 278 279 280 282 285 287 289 290 292 292 292 292 293 294 296 297 298 297 297 298 299 300 301 301 302 303 303 303 303 304 304 302 299 298 297 296 293 292 292 294 297 302 306 309 311 314 317 320 321 323 325 328 331 334 336 338 337 336 335 334 332 331 330 330 330 331 333
251 253 255 256 257 258 259 261 263 268 275 278 277 274 272 273 275 276 277 279 281 284 286 288 289 290 291 291 291 292 293 295 296 297 297 297 297 299 300 301 301 301 302 304 305 304 305 305 304 300 296 294 293 290 287 285 285 288 294 299 303 307 310 314 317 319 321 323 325 326 329 331 333 336 337 338 337 335 334 333 331 330 331 332 335
251 252 253 254 255 255 256 258 263 269 274 273 271 270 271 272 274 275 278 281 284 286 288 289 289 289 290 290 291 292 293 295 296 296 296 297 299 300 301 301 301 302 304 306 305 304 303 303 300 296 292 290 287 285 284 283 285 289 294 298 301 305 309 312 316 318 320 322 323 325 326 328 330 332 335 337 337 337 335 333 332 331 332 333 337
251 252 252 252 252 253 255 257 261 266 268 267 267 269 271 273 275 278 281 284 286 286 287 287 287 288 288 289 290 292 293 295 296 296 297 298 300 301 301 300 301 304 307 307 304 300 300 299 295 290 287 285 282 280 281 283 285 289 292 294 298 303 307 311 314 317 319 320 322 323 324 325 327 329 332 335 337 337 336 334 333 332 332 334 338
253 254 254 254 254 256 258 259 261 263 264 265 268 270 273 275 278 281 283 284 284 284 284 285 285 286 287 288 289 292 294 295 295 296 297 299 300 300 300 301 302 305 306 303 299 295 295 294 291 287 282 279 277 276 277 280 283 287 290 293 298 302 306 311 314 316 318 319 320 321 322 323 325 327 329 331 334 336 336 335 333 332 332 334 338
254 256 256 255 256 259 260 260 260 261 263 267 270 273 275 278 279 281 281 282 282 282 283 283 283 284 285 288 290 292 293 294 294 295 297 298 300 300 300 300 301 302 302 299 295 292 291 290 288 284 279 276 275 275 274 276 280 285 290 295 299 303 307 311 313 315 317 318 319 320 321 321 323 325 326 329 331 334 336 336 335 333 332 333 336
254 256 256 256 257 258 259 260 261 263 266 269 272 274 276 277 278 278 279 279 280 280 281 281 282 283 285 288 290 292 292 293 294 295 296 298 299 298 297 297 297 297 297 295 292 289 289 289 286 283 279 275 273 274 275 277 281 287 293 298 303 306 309 311 313 315 316 317 318 319 320 320 322 323 324 326 329 331 333 335 335 333 332 332 333
254 255 256 257 257 258 260 263 265 267 269 270 271 273 274 275 276 277 277 277 277 278 278 279 282 284 286 288 290 291 291 291 292 294 295 296 297 296 294 292 291 291 291 291 288 287 288 287 286 284 283 281 279 280 282 285 289 293 297 301 305 307 309 311 313 314 316 317 318 318 319 320 321 322 323 324 326 328 330 333 335 334 332 330 330
255 255 256 258 258 259 261 264 266 267 269 271 271 272 274 274 275 275 275 275 275 276 277 278 280 283 286 288 289 288 288 289 290 292 293 293 293 292 288 285 284 285 287 287 286 285 286 286 287 287 287 287 287 288 289 291 294 297 299 302 305 306 308 310 312 314 315 316 317 319 320 320 321 322 322 323 324 326 328 330 332 333 333 330 328
Height
5899 5900 5901 5902 5903 5903 5904 5905 5906 5907 5908 5909 5909 5910 5910 5910 5911 5912 5913 5913 5912 5912 5912 5912 5912 5911 5910 5909 5908 5906 5905 5904 5903 5902 5900 5898 5897 5895 5894 5893 5891 5889 5888 5886 5885 5884 5881 5879 5878 5876 5874 5873 5873 5872 5872 5871 5871 5870 5869 5868 5868 5867 5867 5867 5867 5866 5865 5865 5864 5862 5861 5860 5859 5857 5856 5855 5854 5853 5852 5851 5850 5848 5847 5846 5845
5897 5898 5899 5900 5901 5901 5902 5903 5904 5905 5906 5907 5907 5908 5908 5908 5909 5910 5911 5911 5911 5910 5910 5910 5909 5909 5908 5906 5905 5904 5903 5902 5901 5900 5898 5896 5895 5894 5892 5890 5888 5886 5885 5883 5882 5881 5879 5877 5876 5874 5873 5872 5871 5871 5870 5869 5868 5867 5866 5865 5864 5863 5863 5863 5863 5863 5862 5861 5860 5859 5858 5857 5855 5854 5852 5852 5851 5850 5849 5848 5846 5845 5843 5842 5840
5894 5896 5897 5898 5899 5899 5900 5901 5902 5903 5904 5905 5905 5906 5906 5906 5907 5908 5908 5909 5909 5909 5908 5908 5908 5907 5906 5904 5903 5902 5901 5900 5898 5897 5896 5894 5893 5892 5890 5887 5885 5883 5882 5880 5879 5878 5876 5875 5874 5872 5871 5870 5869 5868 5868 5867 5865 5864 5863 5862 5861 5860 5860 5860 5860 5860 5858 5856 5855 5854 5854 5853 5852 5850 5849 5848 5847 5846 5845 5843 5842 5841 5839 5837 5835
5892 5893 5895 5896 5897 5898 5898 5899 5899 5900 5901 5902 5903 5903 5904 5904 5905 5906 5906 5907 5907 5907 5906 5906 5905 5905 5904 5903 5901 5900 5898 5897 5895 5894 5893 5891 5890 5889 5886 5884 5882 5880 5879 5877 5876 5875 5874 5872 5871 5870 5869 5868 5867 5866 5865 5864 5862 5861 5860 5859 5858 5857 5857 5857 5856 5856 5854 5852 5850 5850 5849 5849 5848 5846 5845 5844 5843 5841 5840 5838 5837 5835 5833 5832 5830
5890 5891 5892 5893 5895 5896 5896 5897 5898 5898 5899 5900 5900 5901 5901 5902 5903 5904 5904 5905 5905 5905 5904 5904 5903 5902 5902 5900 5899 5897 5896 5894 5893 5891 5889 5888 5887 5886 5884 5882 5879 5877 5876 5875 5873 5872 5871 5869 5868 5867 5866 5865 5864 5863 5862 5861 5859 5858 5857 5856 5855 5854 5853 5853 5852 5851 5850 5849 5847 5846 5845 5845 5844 5842 5841 5840 5839 5837 5835 5833 5831 5829 5828 5826 5824
5888 5889 5890 5891 5892 5893 5894 5895 5895 5896 5897 5897 5898 5899 5899 5900 5900 5901 5902 5903 5903 5903 5903 5902 5901 5900 5899 5898 5896 5895 5893 5892 5890 5888 5887 5886 5885 5883 5881 5879 5877 5875 5873 5871 5870 5869 5867 5866 5865 5864 5863 5862 5860 5859 5858 5857 5855 5854 5853 5852 5851 5850 5849 5848 5847 5847 5846 5845 5844 5843 5842 5841 5840 5838 5837 5835 5834 5832 5829 5827 5825 5823 5822 5821 5818
5885 5886 5887 5888 5889 5890 5891 5892 5893 5893 5894 5895 5895 5896 5897 5898 5898 5899 5900 5900 5901 5901 5901 5901 5900 5898 5897 5895 5893 5892 5890 5888 5886 5885 5885 5885 5883 5880 5878 5876 5874 5872 5870 5868 5866 5865 5864 5863 5861 5860 5859 5858 5856 5855 5854 5853 5852 5850 5849 5848 5847 5846 5845 5844 5843 5842 5842 5841 5840 5839 5838 5837 5835 5834 5832 5830 5828 5826 5824 5822 5820 5817 5815 5815 5813
5883 5884 5885 5886 5887 5888 5888 5889 5890 5890 5891 5892 5893 5894 5895 5895 5896 5896 5897 5897 5898 5898 5898 5898 5897 5895 5894 5891 5890 5888 5886 5885 5883 5881 5881 5881 5879 5877 5875 5873 5870 5868 5866 5864 5862 5861 5860 5859 5858 5856 5855 5853 5852 5850 5849 5848 5847 5846 5845 5844 5843 5842 5841 5840 5839 5838 5837 5837 5836 5835 5834 5832 5830 5829 5827 5825 5823 5820 5818 5817 5815 5812 5810 5808 5806
5881 5882 5882 5883 5884 5885 5885 5886 5887 5887 5888 5889 5890 5891 5892 5893 5894 5894 5894 5894 5895 5895 5895 5895 5893 5892 5890 5888 5887 5885 5884 5882 5880 5879 5878 5876 5874 5873 5871 5869 5866 5864 5862 5860 5859 5857 5856 5855 5854 5852 5851 5850 5848 5846 5845 5844 5843 5842 5841 5840 5839 5839 5838 5836 5835 5834 5833 5833 5832 5830 5829 5827 5825 5823 5821 5819 5817 5815 5812 5811 5809 5807 5805 5802 5799
5878 5879 5880 5881 5881 5882 5882 5883 5884 5885 5885 5886 5887 5888 5889 5890 5891 5892 5892 5892 5891 5891 5891 5891 5890 5888 5887 5886 5884 5883 5881 5880 5878 5876 5875 5872 5870 5869 5867 5865 5862 5860 5858 5856 5854 5853 5852 5851 5850 5848 5847 5846 5844 5842 5841 5840 5839 5838 5837 5836 5835 5834 5834 5832 5831 5830 5829 5828 5827 5825 5823 5822 5820 5817 5815 5813 5811 5809 5807 5805 5803 5801 5799 5797 5793
5875 5876 5877 5878 5878 5879 5879 5880 5881 5882 5883 5883 5884 5885 5886 5887 5888 5888 5889 5888 5888 5888 5888 5887 5886 5885 5884 5883 5881 5880 5879 5877 5875 5873 5871 5868 5866 5865 5863 5861 5858 5856 5855 5852 5851 5850 5848 5847 5846 5844 5843 5842 5840 5838 5837 5836 5834 5834 5833 5832 5831 5830 5829 5829 5827 5826 5824 5823 5822 5820 5818 5816 5814 5811 5809 5808 5806 5804 5802 5799 5798 5795 5793 5790 5787
5871 5872 5874 5874 5874 5875 5876 5877 5878 5879 5879 5880 5881 5882 5882 5883 5884 5884 5885 5885 5885 5884 5884 5884 5883 5881 5880 5879 5878 5877 5876 5874 5872 5870 5867 5864 5862 5861 5859 5857 5855 5853 5851 5849 5847 5846 5845 5843 5841 5840 5839 5838 5836 5834 5833 5831 5830 5829 5828 5828 5827 5826 5825 5824 5822 5820 5819 5818 5816 5814 5812 5811 5808 5806 5804 5802 5800 5798 5796 5793 5791 5789 5786 5783 5780
5868 5869 5870 5870 5871 5872 5873 5874 5874 5875 5876 5877 5877 5878 5879 5879 5880 5880 5881 5881 5881 5881 5880 5880 5879 5878 5877 5875 5874 5874 5872 5870 5868 5866 5863 5860 5857 5856 5854 5853 5851 5849 5847 5845 5844 5843 5841 5838 5837 5836 5835 5834 5832 5830 5829 5827 5826 5824 5823 5823 5822 5821 5819 5818 5817 5815 5814 5813 5811 5809 5807 5805 5803 5801 5798 5796 5794 5792 5790 5787 5784 5782 5779 5776 5773
5865 5865 5865 5866 5867 5868 5869 5870 5871 5871 5872 5873 5874 5875 5875 5875 5876 5876 5877 5877 5877 5877 5876 5876 5875 5874 5873 5872 5870 5869 5868 5866 5864 5861 5859 5856 5852 5851 5849 5848 5846 5845 5843 5841 5839 5838 5837 5834 5833 5832 5831 5830 5828 5826 5824 5822 5821 5820 5819 5818 5817 5815 5814 5812 5812 5811 5809 5808 5806 5804 5802 5799 5797 5795 5792 5790 5788 5786 5784 5781 5778 5775 5772 5769 5766
5861 5862 5862 5862 5863 5864 5865 5866 5867 5867 5868 5869 5870 5871 5872 5872 5872 5873 5873 5873 5873 5873 5872 5871 5871 5870 5869 5868 5866 5865 5863 5861 5859 5857 5854 5851 5848 5846 5845 5843 5842 5840 5839 5837 5835 5833 5832 5831 5830 5829 5828 5826 5824 5822 5820 5818 5816 5815 5814 5813 5812 5810 5808 5807 5807 5806 5804 5803 5801 5799 5797 5794 5792 5789 5787 5785 5783 5781 5778 5775 5772 5768 5765 5762 5760
5857 5858 5858 5858 5859 5859 5860 5861 5862 5863 5864 5866 5867 5868 5868 5868 5869 5869 5869 5869 5869 5868 5867 5867 5866 5865 5864 5863 5862 5860 5859 5857 5855 5852 5850 5847 5844 5842 5841 5839 5838 5836 5835 5834 5831 5829 5828 5827 5826 5825 5824 5822 5819 5817 5815 5813 5812 5811 5809 5808 5807 5805 5803 5802 5802 5801 5799 5798 5796 5794 5792 5789 5787 5784 5781 5779 5777 5774 5771 5768 5765 5762 5759 5757 5754
5852 5853 5854 5855 5855 5855 5856 5857 5858 5859 5861 5862 5863 5864 5865 5865 5865 5865 5865 5865 5864 5864 5863 5862 5862 5861 5860 5859 5857 5856 5854 5853 5851 5848 5846 5843 5841 5839 5837 5835 5833 5833 5831 5829 5827 5826 5825 5824 5823 5822 5819 5817 5815 5813 5811 5809 5807 5806 5805 5804 5802 5800 5798 5797 5797 5796 5794 5792 5790 5788 5786 5783 5780 5778 5775 5772 5770 5767 5765 5762 5758 5755 5753 5751 5749
5848 5849 5850 5851 5851 5852 5852 5853 5855 5856 5858 5859 5860 5860 5861 5861 5861 5861 5861 5861 5860 5859 5859 5858 5857 5856 5855 5854 5853 5851 5850 5848 5846 5844 5842 5839 5837 5834 5832 5831 5829 5828 5827 5825 5824 5822 5821 5820 5819 5817 5814 5812 5810 5808 5806 5804 5803 5801 5800 5799 5798 5796 5794 5792 5791 5791 5789 5786 5784 5782 5779 5776 5774 5771 5769 5766 5763 5760 5758 5755 5752 5748 5746 5745 5743
5843 5845 5846 5847 5847 5848 5849 5850 5851 5853 5854 5855 5856 5856 5857 5857 5857 5857 5857 5857 5856 5855 5855 5854 5853 5852 5851 5849 5848 5847 5845 5844 5842 5840 5837 5835 5832 5830 5828 5827 5825 5824 5822 5821 5820 5818 5817 5815 5814 5812 5810 5807 5805 5802 5800 5798 5797 5797 5796 5795 5793 5791 5789 5788 5787 5785 5783 5780 5778 5775 5773 5770 5767 5764 5762 5759 5755 5753 5751 5748 5745 5742 5740 5739 5737
5839 5840 5841 5843 5844 5845 5846 5847 5848 5849 5851 5851 5852 5852 5853 5853 5854 5854 5854 5854 5853 5852 5851 5850 5849 5847 5846 5845 5844 5842 5841 5839 5837 5835 5833 5830 5828 5826 5824 5823 5821 5820 5818 5816 5815 5813 5811 5809 5808 5807 5805 5802 5800 5797 5794 5793 5792 5791 5790 5789 5788 5786 5785 5783 5782 5780 5777 5774 5771 5769 5766 5763 5760 5758 5755 5752 5749 5746 5743 5741 5738 5736 5734 5733 5731
5833 5835 5837 5838 5840 5841 5842 5843 5844 5846 5846 5847 5848 5849 5849 5850 5850 5850 5850 5850 5849 5848 5848 5846 5845 5844 5843 5841 5840 5838 5836 5835 5833 5831 5828 5825 5823 5821 5819 5818 5817 5815 5813 5811 5809 5807 5805 5803 5801 5800 5799 5797 5796 5793 5790 5788 5786 5785 5783 5783 5782 5781 5780 5778 5776 5773 5770 5767 5765 5762 5760 5757 5754 5751 5748 5746 5743 5739 5736 5734 5731 5729 5728 5726 5725
5826 5829 5831 5833 5835 5837 5838 5839 5840 5841 5842 5843 5844 5845 5846 5846 5846 5846 5845 5845 5844 5843 5842 5841 5840 5840 5839 5837 5835 5833 5832 5830 5829 5826 5823 5821 5819 5817 5815 5814 5813 5811 5808 5806 5804 5802 5799 5797 5795 5794 5792 5792 5791 5789 5786 5783 5781 5780 5778 5777 5776 5775 5774 5772 5769 5767 5764 5761 5759 5756 5753 5750 5747 5744 5742 5739 5736 5733 5730 5727 5725 5723 5722 5720 5719
5820 5823 5826 5828 5830 5832 5833 5834 5836 5837 5838 5839 5840 5841 5841 5842 5841 5841 5840 5840 5839 5837 5837 5836 5835 5835 5834 5833 5831 5829 5827 5826 5824 5821 5818 5816 5814 5813 5812 5811 5809 5806 5804 5802 5800 5797 5794 5791 5789 5788 5786 5786 5785 5784 5782 5780 5778 5776 5773 5772 5771 5770 5768 5766 5764 5761 5758 5756 5753 5750 5747 5743 5741 5738 5736 5733 5729 5726 5723 5721 5718 5717 5715 5714 5712
5813 5816 5819 5822 5825 5827 5828 5829 5831 5831 5833 5835 5836 5836 5837 5837 5837 5836 5836 5834 5833 5832 5832 5832 5830 5828 5826 5826 5826 5824 5821 5821 5819 5816 5813 5811 5809 5808 5807 5806 5804 5801 5798 5797 5794 5791 5788 5786 5784 5782 5781 5780 5779 5778 5776 5775 5773 5770 5768 5766 5765 5763 5762 5760 5758 5756 5753 5750 5747 5744 5740 5737 5734 5732 5729 5726 5723 5720 5717 5715 5712 5711 5710 5708 5706
5806 5810 5813 5816 5820 5822 5823 5824 5825 5826 5828 5830 5830 5831 5832 5832 5832 5832 5830 5828 5828 5828 5828 5827 5825 5821 5818 5819 5820 5818 5816 5815 5813 5810 5807 5805 5804 5802 5800 5799 5797 5795 5792 5790 5788 5785 5782 5780 5779 5777 5776 5775 5774 5772 5770 5768 5766 5765 5763 5761 5759 5757 5756 5754 5753 5750 5748 5744 5741 5737 5734 5731 5728 5726 5723 5720 5717 5714 5712 5709 5707 5705 5704 5703 5701
5800 5803 5808 5812 5815 5816 5817 5818 5819 5821 5822 5824 5825 5826 5826 5827 5827 5826 5825 5824 5824 5824 5823 5822 5821 5818 5816 5816 5815 5813 5811 5809 5806 5804 5802 5800 5799 5796 5794 5792 5790 5788 5786 5784 5781 5779 5777 5775 5774 5773 5772 5771 5770 5768 5766 5763 5761 5759 5757 5756 5755 5753 5750 5749 5747 5744 5741 5738 5734 5731 5728 5725 5722 5720 5717 5714 5711 5709 5707 5705 5702 5700 5699 5698 5695
5793 5797 5802 5806 5808 5809 5810 5812 5813 5815 5817 5818 5820 5821 5821 5821 5821 5821 5821 5821 5820 5819 5818 5817 5816 5814 5812 5811 5809 5808 5806 5803 5799 5797 5796 5795 5793 5790 5787 5786 5785 5783 5780 5777 5775 5773 5771 5769 5768 5767 5766 5765 5764 5763 5761 5758 5756 5754 5752 5751 5750 5748 5745 5743 5741 5737 5734 5731 5727 5723 5721 5719 5716 5713 5711 5708 5705 5703 5701 5699 5697 5695 5693 5692 5690
5786 5791 5795 5798 5800 5802 5804 5806 5808 5810 5812 5813 5814 5815 5815 5815 5815 5815 5816 5816 5815 5814 5813 5812 5810 5809 5807 5806 5804 5802 5800 5797 5794 5791 5790 5789 5788 5784 5782 5781 5780 5777 5775 5772 5769 5767 5765 5764 5763 5762 5761 5760 5758 5757 5755 5752 5751 5750 5749 5747 5745 5743 5740 5738 5734 5731 5727 5725 5721 5716 5714 5712 5710 5707 5705 5702 5700 5698 5696 5694 5692 5690 5688 5686 5685
5777 5782 5787 5790 5793 5796 5798 5800 5803 5804 5806 5807 5808 5808 5809 5809 5809 5809 5810 5810 5810 5808 5807 5806 5805 5803 5802 5800 5798 5797 5795 5792 5789 5787 5784 5783 5782 5780 5777 5775 5773 5771 5768 5765 5763 5762 5760 5759 5758 5757 5756 5755 5754 5751 5749 5747 5746 5746 5744 5742 5739 5737 5735 5732 5728 5725 5721 5719 5716 5712 5709 5707 5705 5703 5700 5698 5695 5693 5691 5689 5687 5685 5683 5681 5679
5767 5775 5781 5784 5787 5790 5792 5795 5796 5798 5799 5800 5801 5801 5802 5802 5803 5803 5804 5803 5803 5803 5801 5800 5799 5798 5797 5795 5793 5791 5789 5786 5784 5782 5778 5776 5774 5773 5771 5768 5765 5763 5760 5758 5758 5757 5755 5754 5754 5752 5751 5750 5749 5747 5745 5743 5742 5741 5739 5736 5733 5731 5729 5727 5722 5719 5716 5714 5712 5708 5705 5703 5700 5698 5696 5693 5690 5687 5685 5683 5681 5679 5677 5675 5674
5763 5770 5775 5778 5781 5784 5787 5789 5790 5791 5792 5793 5794 5795 5795 5796 5796 5797 5797 5797 5797 5796 5795 5794 5793 5792 5791 5789 5787 5785 5783 5781 5779 5776 5773 5770 5768 5766 5764 5762 5760 5758 5756 5755 5754 5752 5750 5750 5750 5748 5746 5745 5744 5742 5739 5738 5737 5735 5732 5730 5728 5725 5723 5720 5717 5714 5710 5708 5705 5703 5701 5699 5696 5693 5690 5688 5685 5682 5680 5678 5676 5674 5672 5670 5668
5761 5767 5770 5773 5777 5780 5781 5782 5783 5784 5785 5786 5787 5788 5789 5790 5790 5790 5790 5790 5790 5790 5789 5788 5787 5785 5784 5782 5780 5779 5777 5775 5773 5770 5768 5765 5763 5761 5759 5758 5758 5757 5756 5755 5754 5751 5748 5747 5745 5743 5741 5740 5738 5736 5734 5733 5731 5729 5727 5725 5723 5720 5717 5715 5712 5709 5705 5702 5700 5698 5696 5694 5692 5689 5686 5683 5681 5678 5675 5673 5670 5668 5666 5664 5663
5758 5762 5765 5769 5772 5773 5773 5775 5776 5778 5780 5781 5782 5783 5785 5786 5786 5784 5784 5784 5784 5783 5783 5782 5781 5779 5777 5776 5774 5773 5771 5769 5767 5765 5763 5762 5759 5757 5756 5755 5754 5753 5753 5753 5751 5747 5744 5742 5740 5738 5736 5734 5732 5730 5728 5726 5724 5722 5720 5718 5717 5715 5712 5709 5707 5704 5701 5699 5697 5695 5692 5690 5687 5684 5681 5679 5676 5673 5670 5668 5665 5663 5661 5660 5658
5753 5756 5759 5762 5764 5764 5766 5769 5771 5773 5775 5776 5777 5779 5780 5781 5780 5779 5778 5778 5778 5777 5777 5776 5774 5773 5771 5769 5768 5767 5765 5764 5762 5759 5758 5756 5754 5752 5751 5750 5748 5747 5747 5746 5745 5742 5739 5737 5735 5733 5731 5729 5727 5725 5724 5721 5718 5715 5712 5710 5709 5708 5706 5704 5701 5699 5697 5695 5693 5691 5689 5686 5683 5680 5677 5673 5670 5668 5665 5663 5661 5659 5657 5656 5654
5749 5751 5754 5756 5757 5759 5761 5764 5766 5766 5767 5769 5771 5773 5774 5774 5774 5773 5772 5772 5771 5771 5771 5769 5768 5767 5765 5764 5763 5761 5759 5758 5757 5754 5752 5750 5748 5747 5746 5744 5743 5741 5740 5739 5738 5736 5734 5732 5730 5728 5726 5724 5722 5720 5718 5716 5713 5710 5707 5704 5703 5702 5701 5699 5698 5696 5694 5692 5690 5687 5685 5682 5678 5675 5672 5669 5666 5664 5662 5659 5657 5655 5653 5652 5650
5745 5747 5749 5752 5754 5756 5757 5759 5760 5760 5761 5763 5765 5767 5768 5768 5767 5766 5766 5766 5765 5765 5764 5763 5762 5761 5760 5758 5757 5755 5753 5752 5751 5750 5747 5745 5744 5742 5741 5739 5738 5736 5735 5733 5731 5729 5727 5725 5723 5722 5720 5718 5716 5715 5712 5709 5707 5705 5703 5701 5699 5698 5697 5695 5694 5692 5690 5688 5686 5683 5680 5677 5674 5671 5668 5665 5663 5660 5658 5656 5654 5652 5650 5648 5646
5742 5744 5746 5748 5750 5750 5752 5753 5754 5756 5757 5758 5760 5761 5761 5761 5760 5760 5760 5760 5759 5758 5757 5756 5755 5755 5754 5753 5751 5749 5748 5747 5746 5744 5742 5741 5739 5738 5736 5734 5733 5731 5729 5727 5725 5723 5721 5719 5717 5716 5714 5712 5710 5709 5706 5704 5702 5700 5699 5697 5696 5694 5693 5692 5690 5688 5686 5684 5682 5679 5677 5674 5671 5668 5665 5662 5660 5658 5655 5653 5651 5649 5647 5645 5642
5736 5738 5740 5742 5742 5744 5746 5748 5750 5751 5752 5753 5755 5755 5755 5754 5754 5754 5754 5753 5752 5751 5750 5750 5749 5749 5748 5747 5746 5744 5743 5742 5740 5738 5736 5735 5734 5733 5731 5729 5728 5726 5724 5722 5719 5717 5715 5714 5712 5710 5708 5706 5704 5703 5701 5699 5698 5696 5695 5694 5693 5692 5690 5689 5687 5685 5684 5681 5679 5677 5674 5671 5668 5665 5662 5660 5657 5655 5653 5650 5648 5646 5644 5641 5639
5730 5733 5734 5735 5737 5739 5741 5743 5745 5746 5747 5748 5749 5749 5748 5748 5748 5748 5747 5746 5745 5744 5744 5744 5743 5743 5742 5741 5740 5739 5737 5736 5734 5732 5731 5730 5729 5728 5726 5724 5722 5720 5719 5716 5714 5713 5711 5709 5707 5705 5702 5701 5699 5698 5696 5695 5694 5693 5692 5691 5690 5689 5688 5686 5684 5683 5681 5679 5677 5674 5671 5668 5665 5662 5659 5657 5655 5652 5650 5648 5645 5643 5641 5638 5635
5727 5729 5730 5731 5732 5734 5736 5738 5739 5740 5741 5742 5742 5743 5742 5741 5741 5741 5740 5739 5739 5739 5738 5738 5737 5737 5736 5735 5734 5733 5731 5730 5729 5727 5726 5724 5723 5722 5720 5719 5717 5715 5713 5711 5709 5708 5707 5705 5702 5700 5698 5696 5695 5694 5693 5692 5691 5690 5689 5688 5688 5686 5685 5684 5682 5680 5679 5676 5674 5671 5668 5665 5662 5659 5657 5654 5652 5650 5647 5645 5642 5640 5638 5635 5632
5723 5724 5726 5727 5728 5729 5731 5731 5732 5733 5735 5736 5736 5737 5736 5735 5734 5734 5734 5733 5733 5733 5732 5732 5732 5731 5730 5729 5728 5727 5725 5724 5723 5722 5720 5719 5718 5716 5715 5713 5711 5710 5708 5706 5704 5703 5702 5700 5698 5696 5694 5692 5691 5690 5690 5689 5688 5687 5687 5686 5685 5684 5683 5681 5680 5678 5676 5674 5671 5669 5666 5663 5660 5657 5654 5652 5650 5647 5645 5642 5640 5637 5635 5633 5630
5718 5719 5721 5722 5722 5723 5725 5725 5725 5726 5728 5729 5730 5730 5729 5729 5728 5728 5728 5728 5728 5727 5727 5726 5726 5725 5724 5723 5723 5721 5720 5719 5718 5716 5715 5714 5712 5711 5709 5707 5705 5704 5703 5701 5700 5698 5696 5695 5693 5692 5690 5689 5687 5687 5686 5686 5685 5684 5684 5683 5682 5682 5680 5679 5677 5675 5673 5671 5668 5666 5663 5660 5658 5655 5652 5650 5647 5645 5642 5640 5637 5635 5633 5631 5628
5713 5714 5714 5715 5716 5717 5719 5719 5719 5720 5721 5722 5723 5723 5723 5722 5722 5722 5722 5722 5722 5721 5720 5720 5720 5719 5718 5718 5717 5716 5715 5714 5713 5712 5710 5709 5707 5705 5703 5701 5700 5698 5697 5696 5695 5693 5692 5690 5689 5689 5687 5686 5684 5683 5683 5682 5682 5682 5681 5681 5680 5679 5678 5676 5674 5673 5670 5668 5666 5663 5661 5658 5656 5653 5651 5648 5645 5643 5640 5638 5635 5633 5631 5629 5626
5706 5707 5707 5708 5709 5711 5712 5712 5712 5713 5714 5715 5716 5716 5716 5716 5716 5716 5716 5716 5716 5715 5714 5714 5714 5714 5713 5712 5711 5711 5710 5709 5709 5707 5706 5704 5702 5700 5698 5696 5694 5693 5692 5691 5690 5688 5687 5686 5685 5684 5683 5682 5681 5681 5680 5680 5680 5679 5679 5678 5677 5676 5675 5673 5672 5670 5668 5665 5663 5661 5658 5656 5654 5651 5649 5646 5644 5641 5638 5636 5633 5631 5629 5627 5624
5698 5699 5700 5701 5702 5703 5704 5705 5705 5707 5708 5709 5709 5710 5710 5710 5710 5710 5709 5710 5709 5708 5708 5708 5708 5708 5708 5707 5706 5706 5705 5705 5704 5702 5700 5698 5696 5694 5692 5691 5689 5689 5688 5687 5686 5684 5683 5682 5681 5680 5679 5679 5678 5678 5677 5677 5677 5677 5676 5676 5675 5673 5672 5671 5669 5667 5665 5663 5661 5658 5656 5654 5652 5649 5647 5645 5642 5639 5636 5634 5631 5629 5627 5625 5622
5691 5691 5692 5693 5693 5695 5696 5696 5698 5700 5702 5702 5703 5704 5704 5704 5704 5704 5703 5703 5703 5703 5703 5703 5703 5703 5702 5702 5701 5701 5700 5699 5698 5697 5695 5693 5691 5689 5687 5686 5685 5684 5684 5683 5681 5680 5679 5679 5678 5677 5676 5676 5675 5675 5674 5674 5674 5674 5674 5673 5672 5671 5669 5668 5666 5664 5662 5660 5658 5656 5654 5651 5649 5647 5645 5643 5640 5637 5635 5632 5630 5627 5625 5623 5621
5684 5684 5685 5685 5686 5687 5689 5690 5691 5693 5695 5696 5697 5697 5697 5697 5698 5698 5698 5698 5698 5698 5698 5698 5697 5697 5697 5697 5696 5696 5695 5694 5693 5691 5690 5688 5686 5684 5683 5682 5680 5680 5680 5680 5678 5677 5675 5675 5674 5674 5673 5673 5673 5672 5672 5672 5671 5671 5671 5670 5669 5668 5666 5665 5663 5662 5660 5658 5655 5653 5651 5649 5647 5645 5643 5640 5638 5636 5633 5630 5628 5626 5623 5621 5619
5678 5679 5679 5680 5681 5683 5684 5685 5686 5687 5688 5689 5690 5690 5690 5691 5692 5692 5692 5692 5693 5693 5693 5692 5692 5692 5692 5691 5691 5691 5690 5689 5687 5686 5685 5684 5682 5680 5679 5678 5677 5676 5676 5676 5675 5674 5673 5672 5672 5671 5671 5671 5670 5670 5670 5669 5669 5668 5668 5667 5666 5664 5663 5662 5660 5659 5657 5655 5653 5651 5649 5646 5644 5642 5640 5638 5636 5634 5631 5629 5626 5624 5622 5620 5618
5673 5674 5675 5676 5678 5679 5679 5679 5680 5681 5682 5683 5683 5684 5684 5685 5686 5687 5687 5687 5687 5687 5687 5687 5686 5686 5687 5686 5686 5686 5685 5683 5682 5681 5680 5679 5679 5677 5676 5675 5674 5674 5673 5672 5672 5671 5670 5669 5669 5669 5669 5668 5668 5667 5667 5667 5666 5665 5665 5664 5663 5661 5660 5658 5657 5656 5654 5652 5650 5648 5646 5644 5642 5640 5638 5636 5634 5631 5629 5627 5624 5622 5620 5618 5616
5668 5669 5671 5672 5673 5674 5674 5674 5675 5675 5676 5677 5677 5678 5679 5680 5680 5681 5681 5681 5681 5682 5682 5682 5681 5681 5681 5681 5681 5680 5679 5678 5677 5676 5675 5674 5674 5674 5673 5672 5672 5671 5671 5670 5669 5668 5667 5667 5666 5666 5666 5666 5665 5665 5664 5664 5663 5662 5661 5660 5659 5658 5657 5655 5654 5653 5651 5649 5647 5645 5643 5641 5639 5637 5635 5633 5631 5629 5627 5625 5623 5621 5618 5617 5615
5664 5665 5666 5667 5668 5668 5669 5669 5669 5670 5670 5671 5671 5672 5673 5674 5674 5675 5675 5675 5676 5676 5676 5676 5676 5676 5676 5676 5675 5674 5673 5673 5672 5671 5670 5669 5669 5670 5670 5669 5669 5668 5668 5668 5667 5666 5665 5664 5664 5663 5663 5663 5662 5662 5662 5661 5660 5659 5658 5657 5656 5655 5654 5652 5651 5650 5648 5646 5644 5643 5641 5639 5637 5635 5633 5631 5629 5627 5625 5623 5621 5619 5617 5615 5613